Weather History for Harrison, AR

Change the Weather History Date:

Sunday, February 23, 2014

  Actual Average Record
Temperature  
Mean Temperature 40 °F 42 °F  
Max Temperature 50 °F 53 °F 84 °F (1930)
Min Temperature 30 °F 32 °F 5 °F (1910)
Degree Days  
Heating Degree Days 25 23  
Month to date heating degree days 696 578  
Since 1 July heating degree days 3379 3064  
Cooling Degree Days 0 0  
Month to date cooling degree days 0 0  
Year to date cooling degree days 0 0  
Moisture  
Dew Point 28 °F    
Average Humidity 62    
Maximum Humidity 82    
Minimum Humidity 42    
Precipitation  
Precipitation 0.00 in 0.11 in 3.60 in (1985)
Month to date precipitation 0.90 2.13  
Year to date precipitation 1.93 4.69  
Snow  
Snow 0.00 in 0.10 in 4.00 in (1904)
Month to date snowfall 5.8 2.7  
Since 1 July snowfall 15.8 8.7  
Snow Depth 0.00 in    
Sea Level Pressure  
Sea Level Pressure 30.09 in    
Wind  
Wind Speed 6 mph (NNE)    
Max Wind Speed 15 mph    
Max Gust Speed 20 mph    
Visibility 10 miles    
Events      
T = Trace of Precipitation, MM = Missing Value Source: NWS Daily Summary

Daily Weather History Graph

Daily Weather History Graph

Search for Another Location

Airport:

Trip Planner

Search our weather history database for the weather conditions in past years. The results will help you decide how hot, cold, wet, or windy it might be!

Date:

Astronomy

Feb. 23, 2014 Rise Set
Actual Time 6:50 AM CST 6:01 PM CST
Civil Twilight 6:24 AM CST 6:27 PM CST
Nautical Twilight 5:54 AM CST 6:57 PM CST
Astronomical Twilight 5:25 AM CST 7:27 PM CST
Moon 1:44 AM CST (2/23) 12:09 PM CST (2/23)
Length of Visible Light 12h 03m
Length of Day
11h 11m
Last Quarter, 38% of the Moon is Illuminated
Feb 23
Last Quarter
Mar 1
New
Mar 8
First Quarter
Mar 16
Full
Mar 23
Last Quarter

Hourly Weather History & Observations

Time (CST) Temp. Windchill Dew Point Humidity Pressure Visibility Wind Dir Wind Speed Gust Speed Precip Events Conditions
12:53 AM 45.0 °F 43.5 °F 28.0 °F 52% 29.89 in 10.0 mi WNW 3.5 mph - N/A   Clear
1:53 AM 39.9 °F - 28.0 °F 63% 29.90 in 10.0 mi Calm Calm - N/A   Clear
2:53 AM 39.0 °F - 28.0 °F 65% 29.89 in 10.0 mi Calm Calm - N/A   Clear
3:53 AM 37.0 °F 33.3 °F 27.0 °F 67% 29.91 in 10.0 mi NW 4.6 mph - N/A   Clear
4:53 AM 37.9 °F 34.4 °F 28.0 °F 68% 29.94 in 10.0 mi NW 4.6 mph - N/A   Clear
5:53 AM 37.0 °F 32.4 °F 28.9 °F 73% 29.98 in 10.0 mi NNW 5.8 mph - N/A   Clear
6:53 AM 37.0 °F 32.4 °F 30.0 °F 76% 30.04 in 10.0 mi North 5.8 mph - N/A   Mostly Cloudy
7:39 AM 37.4 °F 32.1 °F 30.2 °F 75% 30.05 in 10.0 mi NNE 6.9 mph - N/A   Overcast
7:53 AM 37.0 °F 32.4 °F 32.0 °F 82% 30.07 in 10.0 mi Variable 5.8 mph - N/A   Overcast
8:53 AM 39.0 °F 32.8 °F 33.1 °F 79% 30.08 in 10.0 mi ENE 9.2 mph - N/A   Overcast
9:53 AM 37.0 °F 29.8 °F 32.0 °F 82% 30.10 in 7.0 mi North 10.4 mph - N/A   Overcast
10:28 AM 35.6 °F 28.0 °F 30.2 °F 81% 30.10 in 6.0 mi NE 10.4 mph 19.6 mph N/A   Haze
10:53 AM 37.0 °F 30.4 °F 30.9 °F 79% 30.12 in 8.0 mi NNE 9.2 mph - N/A   Overcast
11:20 AM 39.2 °F 33.0 °F 30.2 °F 70% 30.12 in 10.0 mi NE 9.2 mph - N/A   Overcast
11:31 AM 39.2 °F 33.6 °F 30.2 °F 70% 30.11 in 10.0 mi NE 8.1 mph - N/A   Overcast
11:53 AM 41.0 °F 34.7 °F 30.0 °F 65% 30.13 in 10.0 mi NNE 10.4 mph - N/A   Overcast
12:53 PM 44.1 °F 40.1 °F 30.0 °F 58% 30.11 in 10.0 mi NE 6.9 mph - N/A   Overcast
1:53 PM 46.9 °F - 30.9 °F 54% 30.11 in 10.0 mi ENE 8.1 mph - N/A   Overcast
2:53 PM 48.9 °F - 30.9 °F 50% 30.12 in 10.0 mi Variable 5.8 mph - N/A   Scattered Clouds
3:53 PM 50.0 °F - 30.0 °F 46% 30.13 in 10.0 mi ENE 8.1 mph - N/A   Clear
4:53 PM 50.0 °F - 28.9 °F 44% 30.14 in 10.0 mi NNE 4.6 mph - N/A   Clear
5:53 PM 46.0 °F - 28.0 °F 50% 30.16 in 10.0 mi Calm Calm - N/A   Clear
6:53 PM 41.0 °F 37.1 °F 26.1 °F 55% 30.19 in 10.0 mi NE 5.8 mph - N/A   Clear
7:53 PM 39.9 °F 33.9 °F 19.9 °F 45% 30.21 in 10.0 mi North 9.2 mph - N/A   Clear
8:53 PM 37.0 °F 30.4 °F 18.0 °F 46% 30.23 in 10.0 mi NNE 9.2 mph - N/A   Clear
9:53 PM 34.0 °F 29.8 °F 18.0 °F 52% 30.26 in 10.0 mi NE 4.6 mph - N/A   Clear
10:53 PM 33.1 °F 30.0 °F 17.1 °F 52% 30.27 in 10.0 mi NNE 3.5 mph - N/A   Clear
11:53 PM 30.0 °F 26.5 °F 18.0 °F 61% 30.27 in 10.0 mi NNE 3.5 mph - N/A   Clear